Regional Weather Roundup
Issued by NWS

Home | Current Version | Previous Version | Graphics & Text | Print | Product List | Glossary On
Versions: 1 2 3 4 5 6 7 8 9 10 11 12 13 14 15 16 17 18 19 20 21 22 23 24 25 26 27 28 29 30 31 32 33 34 35 36 37 38 39 40 41 42 43 44 45 46 47 48 49 50
931
ASUS43 KDMX 201306
RWRIA

WEATHER ROUNDUP FOR IOWA
NATIONAL WEATHER SERVICE DES MOINES IA
700 AM CST FRI JAN 20 2017

NOTE: "FAIR" INDICATES FEW OR NO CLOUDS BELOW 12,000 FEET WITH NO
SIGNIFICANT WEATHER AND/OR OBSTRUCTIONS TO VISIBILITY.

* - THESE STATIONS ARE NOT NWS STATIONS...THUS NOT UNDER NWS
QUALITY CONTROL.  THEY ALSO DO NOT REPORT WEATHER SUCH
AS PRECIPITATION OR FOG.

IAZ001>003-012>014-020>022-031>034-043>046-201400-
   NORTHWEST IOWA

CITY           SKY/WX    TMP DP  RH WIND       PRES   REMARKS
CARROLL *      FOG       34  34 100 CALM      29.55F VSB 1/4
CHEROKEE *     CLOUDY    36  36 100 CALM      29.55F FOG
DENISON *      CLOUDY    37  37 100 E3        29.53F FOG
LE MARS *      CLOUDY    37  37 100 SE8       29.53F FOG     WCI  31
ORANGE CITY *  CLOUDY    37  37 100 SE5       29.53F FOG     WCI  34
SHELDON *      CLOUDY    36  36 100 SE8       29.53S FOG     WCI  29
SIOUX CITY     CLOUDY    38  37  97 E9        29.52F FOG     WCI  31
SPENCER        CLOUDY    34  34 100 E8        29.56S WCI  27
STORM LAKE *   FOG       34  34 100 SE8       29.56S VSB<1/4 WCI  27
$$

IAZ055>058-069>071-079>083-090>094-201400-
   SOUTHWEST IOWA

CITY           SKY/WX    TMP DP  RH WIND       PRES   REMARKS
ATLANTIC *     CLOUDY    36  36 100 CALM      29.57R FOG
AUDUBON *      FOG       36  34  93 CALM      29.58R VSB 1/4
CLARINDA *     CLOUDY    37  37 100 CALM      29.60R FOG
COUNCIL BLFS * CLOUDY    37  37 100 SE5       29.56R WCI  34
CRESTON *      FOG       37  37 100 NE7       29.58S VSB<1/4 WCI  32
HARLAN  *      CLOUDY    36  36 100 CALM      29.60R FOG
LAMONI         FOG       37  37 100 E3        29.58R VSB 1/4
RED OAK *      CLOUDY    37  37 100 CALM      29.57S
SHENANDOAH *   CLOUDY    37  37 100 CALM      29.60R
$$

IAZ047>049-059>061-072>074-084-201400-
   CENTRAL IOWA

CITY           SKY/WX    TMP DP  RH WIND       PRES   REMARKS
AMES           CLOUDY    35  35 100 NE5       29.59F FOG     WCI  31
ANKENY *       CLOUDY    36  36 100 NE5       29.60F FOG     WCI  32
BOONE *        FOG       34  34 100 NE7       29.57F VSB 3/4 WCI  28
CHARITON *     FOG       36  36 100 E3        29.60R VSB 1/4
DES MOINES     FOG       37  36  96 E7        29.59F VSB 1/4 WCI  32
GRINNELL*      FOG       34  34  99 NE3       29.60F VSB 1/4
KNOXVILLE *    FOG       36  36 100 CALM      29.60R VSB 1/4
MARSHALLTOWN   FOG       34  34 100 E3        29.59F VSB 1/4
NEWTON *       FOG       36  36 100 NE5       29.59F VSB 1/4 WCI  32
PELLA *        FOG       36  36  99 CALM      29.62R VSB 1/2
PERRY *        FOG       36  35  97 NE6       29.57F VSB 3/4 WCI  31
$$

IAZ004>006-015-016-023>025-035-036-201400-
   NORTH CENTRAL IOWA

CITY           SKY/WX    TMP DP  RH WIND       PRES   REMARKS
ALGONA *       FOG       34  34 100 SE6       29.58F VSB 1/4 WCI  29
CLARION *      CLOUDY    34  34 100 CALM      29.59F FOG
ESTHERVILLE    FOG       33  33 100 S3        29.56F VSB 1
FORT DODGE *   CLOUDY    34  30  86 E5        29.59S WCI  30
MASON CITY     FOG       33  32  96 E5        29.61S VSB 1/4 WCI  29
FOREST CITY *  FOG       32  32 100 CALM      29.60S VSB 3/4
WEBSTER CITY * FOG       34  34 100 NE6       29.57F VSB 1/2 WCI  29
IOWA FALLS *   FOG       35  34  96 E3        29.61S VSB 1/4
$$

IAZ007>011-017>019-026>030-037>042-050>054-066-201400-
   NORTHEAST IOWA

CITY           SKY/WX    TMP DP  RH WIND       PRES   REMARKS
CEDAR RAPIDS   FOG       35  35 100 E8        29.60S VSB 3/4 WCI  29
CHARLES CITY * FOG       34  34 100 E7        29.62S VSB 1/4 WCI  28
CLINTON *      MIX PCPN  36  35  96 NE8       29.62F FOG     WCI  30
DECORAH *      CLOUDY    34  34 100 VRB5      29.62R FOG     WCI  30
DUBUQUE        FOG       34  34 100 NE5       29.63R VSB 1/2 WCI  30
MONTICELLO *   CLOUDY    36  36 100 NE6       29.61F FOG     WCI  31
OELWEIN *      CLOUDY    34  34 100 E7        29.62S FOG     WCI  28
WATERLOO       FOG       34  33  96 CALM      29.61F VSB 3/4
$$

IAZ064-065-067-068-078-201400-
   EAST CENTRAL IOWA

CITY           SKY/WX    TMP DP  RH WIND       PRES   REMARKS
DAVENPORT      FOG       35  35 100 E7        29.62S VSB 3/4 WCI  29
IOWA CITY      CLOUDY    37  36  96 NE3       29.63R FOG
MUSCATINE *    CLOUDY    36  36 100 CALM      29.62S FOG
QUAD CITIES    FOG       37  35  92 E6        29.61S VSB 3/4 WCI  32
$$

IAZ062-063-075>077-085>089-095>099-201400-
   SOUTHEAST IOWA

CITY           SKY/WX    TMP DP  RH WIND       PRES   REMARKS
BURLINGTON     FOG       37  37 100 CALM      29.62R VSB 1/4
FAIRFIELD *    FOG       36  36 100 NE6       29.60R VSB 1/4 WCI  31
FORT MADISON * FOG       37  37 100 CALM      29.62R VSB 1/4
KEOKUK *       FOG       39 N/A N/A CALM      29.60R VSB 1/4
OSKALOOSA *    FOG       35  34  99 N5        29.61R VSB 3/4 WCI  31
OTTUMWA        FOG       36  36 100 NW3       29.60R VSB 3/4
WASHINGTON *   FOG       36  36 100 NE6       29.62S VSB 1/4 WCI  31
$$

ABBREVIATIONS USED IN REMARKS
   TC - TEMPERATURES IN CELSIUS
  WCI - WIND CHILL INDEX
   HX - HEAT INDEX
  VSB - VISIBILITY
$$





USA.gov is the U.S. government's official web portal to all federal, state and local government web resources and services.